Limerick, Ireland

6:19 AM GMT on February 23, 2017 (GMT +0000)
Shannon

Weather History for EINN - May, 2013

Change the Weather History Date:

Monday, May 13, 2013

  Actual Average Record
Temperature  
Mean Temperature 46 °F -  
Max Temperature 51 °F 62 °F 73 °F (2008)
Min Temperature 42 °F 47 °F 39 °F (2015)
Degree Days  
Heating Degree Days 18    
Moisture  
Dew Point 40 °F    
Average Humidity 77    
Maximum Humidity 93    
Minimum Humidity 62    
Precipitation  
Precipitation 0.08 in 0.08 in - ()
Sea Level Pressure  
Sea Level Pressure 29.88 in    
Wind  
Wind Speed 16 mph ()    
Max Wind Speed 28 mph    
Max Gust Speed 38 mph    
Visibility 6.7 miles    
Events Rain    
Averages and records for this station are not official NWS values.
T = Trace of Precipitation, MM = Missing Value Source: Averaged Metar Reports

Daily Weather History Graph

Daily Weather History Graph

Search for Another Location

Airport or City:

Trip Planner

Search our weather history database for the weather conditions in past years. The results will help you decide how hot, cold, wet, or windy it might be!

Date:

Astronomy

May. 13, 2013 Rise Set
Actual Time 5:41 AM IST 9:23 PM IST
Civil Twilight 4:59 AM IST 10:06 PM IST
Nautical Twilight 4:00 AM IST 11:05 PM IST
Astronomical Twilight 2:24 AM IST 12:46 AM IST
Moon 8:12 AM IST (5/13) No Moon Set
Length of Visible Light 17h 07m
Length of Day
15h 41m
Waxing Crescent, 11% of the Moon is Illuminated
May 13
Waxing Crescent
May 18
First Quarter
May 25
Full
May 31
Last Quarter
Jun 8
New

Hourly Weather History & Observations

Time (IST) Temp. Windchill Dew Point Humidity Pressure Visibility Wind Dir Wind Speed Gust Speed Precip Events Conditions
12:00 AM 44.6 °F 37.8 °F 39.2 °F 81% 29.95 in 6.2 mi WSW 15.0 mph - N/A   Partly Cloudy
12:30 AM 46.4 °F 40.4 °F 39.2 °F 76% 29.92 in 6.2 mi WSW 13.8 mph - N/A Rain Light Rain Showers
1:00 AM 45 °F - 39 °F 74% 29.94 in 12 mi WSW 15.7 mph - - Rain Light Rain Showers
1:00 AM 44.6 °F 37.4 °F 39.2 °F 81% 29.92 in 6.2 mi WSW 16.1 mph - N/A   Partly Cloudy
1:30 AM 44.6 °F 38.1 °F 39.2 °F 81% 29.92 in 6.2 mi WSW 13.8 mph - N/A Rain Light Rain Showers
2:00 AM 44.6 °F 37.2 °F 39.2 °F 81% 29.92 in 6.2 mi WSW 17.3 mph - N/A   Partly Cloudy
2:30 AM 44.6 °F 37.8 °F 39.2 °F 81% 29.92 in 6.2 mi WSW 15.0 mph - N/A   Scattered Clouds
3:00 AM 44.6 °F 37.4 °F 39.2 °F 81% 29.92 in 6.2 mi WSW 16.1 mph - N/A   Partly Cloudy
3:30 AM 44.6 °F 37.4 °F 39.2 °F 81% 29.92 in 6.2 mi WSW 16.1 mph - N/A Rain Light Rain Showers
4:00 AM 44.6 °F 37.8 °F 39.2 °F 81% 29.89 in 6.2 mi WSW 15.0 mph - N/A   Mostly Cloudy
4:30 AM 44.6 °F 37.4 °F 39.2 °F 81% 29.89 in 6.2 mi WSW 16.1 mph - N/A   Scattered Clouds
5:00 AM 44.6 °F 37.4 °F 39.2 °F 81% 29.89 in 6.2 mi WSW 16.1 mph - N/A   Mostly Cloudy
5:30 AM 44.6 °F 37.4 °F 41.0 °F 87% 29.89 in 6.2 mi West 16.1 mph - N/A   Scattered Clouds
6:00 AM 44.6 °F 37.2 °F 39.2 °F 81% 29.89 in 6.2 mi West 17.3 mph - N/A   Mostly Cloudy
6:30 AM 44.6 °F 37.2 °F 39.2 °F 81% 29.89 in 6.2 mi WSW 17.3 mph - N/A   Partly Cloudy
7:00 AM 46 °F - 38 °F 66% 29.90 in 12 mi West 13.4 mph - -   Partly Cloudy
7:00 AM 46.4 °F 40.4 °F 39.2 °F 76% 29.89 in 6.2 mi West 13.8 mph - N/A   Scattered Clouds
7:30 AM 46.4 °F 39.5 °F 39.2 °F 76% 29.89 in 6.2 mi West 17.3 mph - N/A Rain Light Rain Showers
8:00 AM 44.6 °F 36.9 °F 41.0 °F 87% 29.89 in 6.2 mi West 18.4 mph - N/A   Scattered Clouds
8:30 AM 46.4 °F 40.4 °F 41.0 °F 81% 29.89 in 6.2 mi West 13.8 mph - N/A Rain Light Rain Showers
9:00 AM 44.6 °F 37.2 °F 41.0 °F 87% 29.89 in 6.2 mi West 17.3 mph - N/A   Mostly Cloudy
9:30 AM 48.2 °F - 41.0 °F 76% 29.89 in 6.2 mi WSW 19.6 mph - N/A   Mostly Cloudy
10:00 AM 44.6 °F 35.9 °F 39.2 °F 81% 29.89 in 6.2 mi West 23.0 mph - N/A Rain Light Rain Showers
10:30 AM 48.2 °F - 41.0 °F 76% 29.89 in 6.2 mi West 19.6 mph - N/A   Scattered Clouds
11:00 AM 50.0 °F - 39.2 °F 66% 29.86 in 6.2 mi WSW 27.6 mph - N/A   Scattered Clouds
11:30 AM 48.2 °F - 41.0 °F 76% 29.86 in 6.2 mi West 23.0 mph - N/A   Scattered Clouds
12:00 PM 46.4 °F 37.5 °F 41.0 °F 81% 29.86 in 5.6 mi West 27.6 mph - N/A Rain Light Rain Showers
12:30 PM 44.6 °F 36.9 °F 41.0 °F 87% 29.86 in 5.6 mi West 18.4 mph - N/A   Mostly Cloudy
1:00 PM 46 °F - 40 °F 73% 29.88 in 10 mi WSW 20.1 mph - - Rain Light Rain Showers
1:00 PM 46.4 °F 38.7 °F 41.0 °F 81% 29.86 in 6.2 mi WSW 20.7 mph - N/A   Mostly Cloudy
1:30 PM 48.2 °F - 42.8 °F 82% 29.86 in 6.2 mi West 19.6 mph - N/A   Scattered Clouds
2:00 PM 50.0 °F - 41.0 °F 71% 29.86 in 6.2 mi West 23.0 mph - N/A   Scattered Clouds
2:30 PM 50.0 °F - 39.2 °F 66% 29.86 in 6.2 mi West 27.6 mph - N/A   Mostly Cloudy
3:00 PM 51.8 °F - 39.2 °F 62% 29.86 in 6.2 mi West 26.5 mph - N/A   Mostly Cloudy
3:30 PM 50.0 °F - 39.2 °F 66% 29.86 in 6.2 mi West 23.0 mph 35.7 mph N/A   Scattered Clouds
4:00 PM 46.4 °F 38.5 °F 41.0 °F 81% 29.86 in 6.2 mi West 21.9 mph 35.7 mph N/A   Scattered Clouds
4:30 PM 48.2 °F - 39.2 °F 71% 29.86 in 6.2 mi West 24.2 mph - N/A Rain Light Rain Showers
5:00 PM 48.2 °F - 39.2 °F 71% 29.86 in 6.2 mi WSW 21.9 mph 38.0 mph N/A Rain Light Rain Showers
5:30 PM 48.2 °F - 39.2 °F 71% 29.86 in 6.2 mi West 18.4 mph - N/A   Mostly Cloudy
6:00 PM 50.0 °F - 39.2 °F 66% 29.86 in 6.2 mi West 20.7 mph - N/A   Scattered Clouds
6:30 PM 50.0 °F - 39.2 °F 66% 29.86 in 6.2 mi West 21.9 mph - N/A   Scattered Clouds
7:00 PM 49 °F - 40 °F 63% 29.86 in 16 mi West 17.9 mph - -   Partly Cloudy
7:00 PM 50.0 °F - 41.0 °F 71% 29.86 in 6.2 mi West 18.4 mph - N/A   Mostly Cloudy
7:30 PM 48.2 °F - 37.4 °F 66% 29.83 in 6.2 mi West 19.6 mph - N/A   Mostly Cloudy
8:00 PM 46.4 °F 38.7 °F 37.4 °F 71% 29.83 in 6.2 mi West 20.7 mph 35.7 mph N/A   Mostly Cloudy
8:30 PM 48.2 °F - 39.2 °F 71% 29.83 in 6.2 mi West 17.3 mph - N/A   Mostly Cloudy
9:30 PM 44.6 °F 37.2 °F 39.2 °F 81% 29.83 in 6.2 mi West 17.3 mph 33.4 mph N/A Rain Light Rain Showers
10:00 PM 44.6 °F 39.2 °F 39.2 °F 81% 29.83 in 6.2 mi West 10.4 mph - N/A   Scattered Clouds
10:30 PM 42.8 °F 35.8 °F 39.2 °F 87% 29.83 in 6.2 mi West 13.8 mph - N/A   Mostly Cloudy
11:00 PM 42.8 °F 40.1 °F 41.0 °F 93% 29.80 in 6.2 mi WSW 4.6 mph - N/A Rain Light Rain Showers
11:30 PM 44.6 °F 40.2 °F 39.2 °F 81% 29.80 in 6.2 mi WSW 8.1 mph - N/A   Partly Cloudy